sat.trackr.live / text

‹ back to catalog

RAISE 2

NORAD 49397 · 2021-102C

PAYLOAD ACTIVE UNKNOWN

§ Identity

Operator
Country
JPN
Launch date
2021-11-09
Launch site
KSCUT
Launch vehicle
Mass (kg)
RCS (m²)

External: N2YO · Heavens-Above · Gunter

§ Orbital elements

Epoch: 2026-09-20T18:42:12.848832Z

Period
94.58 min
Inclination
97.3201°
Eccentricity
0.0007043
Mean motion
15.22450995 rev/d
Perigee alt
493.6 km
Apogee alt
503.3 km
Semi-major
6,876.6 km
B*
1.7020e-4
RAAN
294.2974°
Arg perigee
317.2644°
Mean anomaly
42.8044°
Rev number
26,797

§ Raw data

RAISE 21 49397U 21102C   26263.77931538  .00003871  00000+0  17020-3 0  99912 49397  97.3201 294.2974 0007043 317.2644  42.8044 15.22450995267979

JSON: /api/v1/satellites/49397 · /tle

For live sub-satellite position, see the globe view (requires WebGL).

§ Visibility from observer

Set your observer location to see the next 7 days of passes ≥ 10°. The values pass through the URL so the page stays shareable.

No JS? Fill the form by hand. The geolocation button needs JavaScript.